Current Version              Previous Version:    01  02  03  04  05  06  07  08  09  10  11  12  13  14  15  16  17  18  19  20  21  22  23  24  25  26  27  28  29  30  
   31  32  33  34  35  36  37  38  39  40  41  42  43  44  45  46  47  48  49  50  51  52  53  54  55  56  57  58  59  60  

[Printable]
893
ASUS44 KEWX 231502
RWRTX
SOUTH TEXAS REGIONAL WEATHER ROUNDUP
NATIONAL WEATHER SERVICE AUSTIN/SAN ANTONIO TX
1000 AM CDT THU OCT 23 2014

NOTE: "FAIR" INDICATED FEW OR NO CLOUDS BELOW 12,000 FEET WITH NO
SIGNIFICANT WEATHER AND/OR OBSTRUCTIONS TO VISIBILITY.

* - THESE STATIONS ARE NOT NWS OR FAA STATIONS...AND ARE NOT SUBJECT
    TO NWS AND FAA QUALITY CONTROL.

TXZ171-172-183>190-231600-
TEXAS HILL COUNTRY AND EDWARDS PLATEAU

CITY           SKY/WX    TMP DP  RH WIND       PRES   REMARKS
JUNCTION       PTSUNNY   64  60  87 CALM      30.17R FOG
*LLANO         NOT AVBL
BURNET         MOSUNNY   69  61  75 VRB5      30.18R
*HORSESHOE BAY PTSUNNY   70  62  74 S3        30.16R
*KERRVILLE     MOSUNNY   66  63  90 SE5       30.17R
*FREDERICKSBRG MOSUNNY   66  62  87 SW5       30.16S
*ROCKSPRINGS   SUNNY     64  63  94 SE9       30.19R
*BOERNE STAGE  MOSUNNY   68  66  94 CALM      30.18R
*CASTROVILLE   MOSUNNY   73  59  61 CALM      30.17R
HONDO          CLOUDY    68  60  75 SE3       30.17R
*UVALDE        PTSUNNY   70  66  85 E9        30.16R
DEL RIO        CLOUDY    66  63  90 E7        30.13R
LAUGHLIN AFB   CLOUDY    65  64  95 SE2       30.14R
CARRIZO SPRGS  MOSUNNY   72  64  78 SE6       30.12R
$$

TXZ173-191>194-202-209-217>225-228-231600-
CENTRAL AND SOUTH CENTRAL TEXAS

CITY           SKY/WX    TMP DP  RH WIND       PRES   REMARKS
GEORGETOWN     CLOUDY    70  61  73 E3        30.15R
AUSTIN/BERGSTM MOSUNNY   70  63  78 CALM      30.15R
AUSTIN/MABRY   PTSUNNY   72  61  68 CALM      30.16R
*AUSTIN/EXEC   MOSUNNY   68  61  77 E5        30.16R
*LAGO VISTA    MOSUNNY   70  61  74 CALM      30.17R
SAN MARCOS     SUNNY     70  61  73 MISG      30.16R
NEW BRAUNFELS  LGT RAIN  73  68  84 N3        30.14R
RANDOLPH AFB   MOSUNNY   72  62  71 VRB3      30.15R
PT SAN ANTONIO MOSUNNY   73  61  65 VRB1      30.14R
SAN ANTONIO    MOSUNNY   73  61  65 CALM      30.15R
STINSON FIELD  MOSUNNY   74  61  63 N3        30.13R
*PLEASANTON    MOSUNNY   68  65  88 CALM      30.15R
*LA GRANGE     CLOUDY    67  62  81 CALM      30.14R
*GIDDINGS      CLOUDY    66  57  71 E5        30.19R
*GONZALES      LGT RAIN  67  64  88 NE6       30.14S
$$

TXZ163>164-176>182-195>201-210>213-226-227-235-231600-
SOUTHEAST TEXAS

CITY           SKY/WX    TMP DP  RH WIND       PRES   REMARKS
COLLEGE STN    CLOUDY    67  53  61 E6        30.15R
*BRYAN         CLOUDY    65  57  74 E3        30.17S
*CALDWELL      CLOUDY    64  59  82 CALM      30.19R
*CROCKETT      CLOUDY    64  57  77 E5        30.19R
*BRENHAM       CLOUDY    67  55  65 CALM      30.17R
HUNTSVILLE     CLOUDY    64  53  67 CALM      30.16R
CONROE         PTSUNNY   64  53  67 CALM      30.16R
HOUSTON BUSH   CLOUDY    64  54  69 N3        30.14R
HOUSTON HOBBY  PTSUNNY   67  57  70 NE5       30.13R
*HOUSTON SW AP PTSUNNY   60  53  79 NE3       30.14S
PEARLAND       PTSUNNY   69  58  67 NE7       30.15R
HOUSTON HOOKS  PTSUNNY   64  53  67 VRB3      30.16R
ELLINGTON FLD  PTSUNNY   68  57  68 NE6       30.14R
SUGAR LAND     PTSUNNY   69  56  62 NE5       30.14R
*HOUSTON EXEC  PTSUNNY   64 N/A N/A NE7       30.16R
*CLEVELAND MUN PTSUNNY   60  56  84 CALM      30.14
*WHARTON       CLOUDY    68  58  72 NE6       30.14R
*COLUMBUS      FAIR      66  58  75 NE3       30.14S
$$

TXZ214>216-236>238-231600-
THE UPPER TEXAS COAST

CITY           SKY/WX    TMP DP  RH WIND       PRES   REMARKS
*ORANGE        PTSUNNY   64  53  68 NE6       30.14R
PORT ARTHUR    PTSUNNY   69  54  58 N5        30.13R
GALVESTON      PTSUNNY   72  65  78 NE8       30.12R
ANGLETON       MOSUNNY   68  61  78 NE6       30.12R
*BAY CITY        N/A     69  64  84 NE7       30.12R
PALACIOS       CLOUDY    73  62  68 NE9       30.11R
$$

TXZ229>234-239>247-231600-
TEXAS COASTAL BEND AND RIO GRANDE PLAINS

CITY           SKY/WX    TMP DP  RH WIND       PRES   REMARKS
VICTORIA       CLOUDY    68  62  81 N5        30.14R
*BEEVILLE      CLOUDY    73  62  67 NE8       30.12R
ROCKPORT       MOSUNNY   73  62  68 NE9       30.11R
*PORT ARANSAS  CLOUDY    72  66  79 N12G17    30.10R
*PORT LAVACA   CLOUDY    71  62  73 NE10      30.13R
*INGLESIDE     MOSUNNY   71  64  81 NE10      30.10R
CORPUS CHRISTI PTSUNNY   71  63  75 NE16      30.11R
CORPUS NAS     PTSUNNY   73  68  84 NE16      30.10R
*ROBSTOWN      HVY RAIN  71  64  80 NE8       30.10S
ALICE          PTSUNNY   73  64  73 NE9       30.11R
KINGSVILLE NAS PTSUNNY   73  67  81 N8        30.11R
COTULLA        SUNNY     74  63  68 E9        30.14R
*FAITH RANCH   PTSUNNY   70  64  83 E7        30.12R
LAREDO         PTSUNNY   74  65  73 E5        30.15R
$$

TXZ248>255-231600-
DEEP SOUTH TEXAS

CITY           SKY/WX    TMP DP  RH WIND       PRES   REMARKS
BROWNSVILLE    MOSUNNY   79  69  71 NW7       30.08R
PORT ISABEL    MOSUNNY   79  69  71 N5        30.07R
*SOUTH PADRE   MOSUNNY  N/A N/A N/A NE7       30.06R
HARLINGEN      PTSUNNY   76  69  79 N6        30.08R
*HEBBRONVILLE  CLOUDY    70  64  80 NE6       30.13R
MCALLEN        CLOUDY    73  66  78 N7        30.10R
*WESLACO       CLOUDY    72  66  81 N3        30.09R
FALFURRIAS     PTSUNNY   70  64  83 N6        30.10R
EDINBURG       MOSUNNY   72  67  84 N5        30.10R
*ZAPATA        MOSUNNY   77  64  65 E5        30.11R
$$

TXZ213>215-236>238-242>244-246-247-251-254-255-231600-
CMAN STATIONS

STATION/POSITION TIME  TEMP    WIND        PRES    WAVE
                       AIR SEA DIR/SP/G            HT/PER
                 (UTC) (F)     (DEG/KT/KT) (MB)    (FT/S)
SABINE PASS      1400   64 72   80/  8/ 11 1019.7
SEA RIM ST PARK  1400   62      70/  9/ 11 1019.8
NORTH JETTY/GLS  1400   69 74   70/  9/ 12   N/A
EAGLE POINT      1400   66 73   90/  8/ 12 1020.1
MORGANS POINT    1400   63      30/  4/  7 1020.0
PORT O`CONNOR    1400           40/ 13/ 15   N/A
PORT ARANSAS     1400   72 77  360/ 12/ 14 1019.3
MALAQUITE BEACH  1400   74 78  360/ 13/ 15 1018.3
BAFFIN BAY       1400   73 80   10/ 11/ 12 1018.7
PORT ISABEL      1400   78 79  320/  6/  8 1017.8
$$

GMZ080-GMZ150>470-231600-
OFFSHORE BUOY REPORTS

STATION/POSITION TIME  TEMP    WIND        PRES    WAVE
                       AIR SEA DIR/SP/G            HT/PER
                 (UTC) (F)     (DEG/KT/KT) (MB)    (FT/S)
20 E GALVESTON   1500   72 78   70/ 10/ 12 1019.3    3/ 5
90 E PT ARANSAS  1500   77 81   50/  6/ 10 1019.0    4/ 7
35 NE PT MANSFLD 1400   78 81   40/  8/ 12 1017.1    5/ 8
200 E PT ISABEL  1400   79 81   60/ 16/ 17 1015.7    6/ 8
$$